Buckeye, AZ

11:05 PM MST on February 22, 2017 (GMT -0700)
Buckeye Municipal

Weather History for KBXK - July, 2013

Change the Weather History Date:

Thursday, July 18, 2013

  Actual Average (KGYR) Record (KGYR)
Temperature  
Mean Temperature 95 °F -  
Max Temperature 104 °F 104 °F 114 °F (2007)
Min Temperature 86 °F 79 °F 73 °F (2000)
Cooling Degree Days 30    
Growing Degree Days 45 (Base 50)    
Moisture  
Dew Point 56 °F    
Average Humidity 28    
Maximum Humidity 45    
Minimum Humidity 19    
Precipitation  
Precipitation 0.00 in - - ()
Sea Level Pressure  
Sea Level Pressure 29.85 in    
Wind  
Wind Speed 10 mph (East)    
Max Wind Speed 21 mph    
Max Gust Speed 28 mph    
Visibility 10 miles    
Events      
Averages and records for this station are not official NWS values.
T = Trace of Precipitation, MM = Missing Value Source: NWS Daily Summary

Daily Weather History Graph

Daily Weather History Graph

Search for Another Location

Airport or City:

Trip Planner

Search our weather history database for the weather conditions in past years. The results will help you decide how hot, cold, wet, or windy it might be!

Date:

Astronomy

Jul. 18, 2013 Rise Set
Actual Time 5:34 AM MST 7:39 PM MST
Civil Twilight 5:06 AM MST 8:07 PM MST
Nautical Twilight 4:31 AM MST 8:41 PM MST
Astronomical Twilight 3:55 AM MST 9:18 PM MST
Moon 3:42 PM MST (7/18) 1:24 AM MST (7/18)
Length of Visible Light 15h 01m
Length of Day
14h 05m
Waxing Gibbous, 78% of the Moon is Illuminated
Jul 18
Waxing Gibbous
Jul 22
Full
Jul 29
Last Quarter
Aug 6
New
Aug 14
First Quarter

Hourly Weather History & Observations

Time (MST) Temp. Heat Index Dew Point Humidity Pressure Visibility Wind Dir Wind Speed Gust Speed Precip Events Conditions
12:15 AM 86.0 °F 86.6 °F 62.6 °F 45% 29.89 in 10.0 mi Calm Calm - N/A   Clear
12:35 AM 86.0 °F 86.6 °F 62.6 °F 45% 29.89 in 10.0 mi North 5.8 mph - N/A   Clear
12:55 AM 86.0 °F 86.6 °F 62.6 °F 45% 29.89 in 10.0 mi NNW 5.8 mph - N/A   Clear
1:15 AM 86.0 °F 86.1 °F 60.8 °F 43% 29.89 in 10.0 mi ENE 5.8 mph - N/A   Clear
1:35 AM 91.4 °F 90.7 °F 59.0 °F 34% 29.89 in 10.0 mi East 11.5 mph - N/A   Clear
1:55 AM 91.4 °F 90.7 °F 59.0 °F 34% 29.88 in 10.0 mi East 17.3 mph - N/A   Clear
2:15 AM 91.4 °F 90.7 °F 59.0 °F 34% 29.88 in 10.0 mi ENE 13.8 mph 21.9 mph N/A   Clear
2:35 AM 91.4 °F 90.7 °F 59.0 °F 34% 29.87 in 10.0 mi East 13.8 mph - N/A   Clear
2:55 AM 91.4 °F 89.9 °F 57.2 °F 31% 29.87 in 10.0 mi East 15.0 mph - N/A   Clear
3:15 AM 91.4 °F 89.9 °F 57.2 °F 31% 29.87 in 10.0 mi East 18.4 mph 21.9 mph N/A   Clear
3:35 AM 89.6 °F 88.1 °F 57.2 °F 33% 29.87 in 10.0 mi East 11.5 mph 19.6 mph N/A   Clear
3:55 AM 89.6 °F 87.7 °F 55.4 °F 31% 29.87 in 10.0 mi East 12.7 mph - N/A   Clear
4:15 AM 89.6 °F 87.7 °F 55.4 °F 31% 29.87 in 10.0 mi East 13.8 mph - N/A   Clear
4:35 AM 89.6 °F 87.7 °F 55.4 °F 31% 29.87 in 10.0 mi East 16.1 mph - N/A   Clear
4:55 AM 89.6 °F 87.7 °F 55.4 °F 31% 29.88 in 10.0 mi East 16.1 mph 23.0 mph N/A   Clear
5:15 AM 89.6 °F 87.7 °F 55.4 °F 31% 29.89 in 10.0 mi ENE 17.3 mph - N/A   Clear
5:35 AM 89.6 °F 87.7 °F 55.4 °F 31% 29.90 in 10.0 mi East 15.0 mph 23.0 mph N/A   Clear
5:55 AM 89.6 °F 87.7 °F 55.4 °F 31% 29.91 in 10.0 mi East 17.3 mph - N/A   Clear
6:15 AM 87.8 °F 86.1 °F 55.4 °F 33% 29.91 in 10.0 mi East 15.0 mph - N/A   Scattered Clouds
6:35 AM 89.6 °F 87.7 °F 55.4 °F 31% 29.91 in 10.0 mi East 19.6 mph 24.2 mph N/A   Partly Cloudy
6:55 AM 89.6 °F 87.7 °F 55.4 °F 31% 29.91 in 10.0 mi East 15.0 mph 21.9 mph N/A   Clear
7:15 AM 89.6 °F 87.7 °F 55.4 °F 31% 29.92 in 10.0 mi ENE 16.1 mph - N/A   Clear
7:35 AM 89.6 °F 87.7 °F 55.4 °F 31% 29.93 in 10.0 mi East 19.6 mph - N/A   Clear
7:55 AM 91.4 °F 89.4 °F 55.4 °F 29% 29.93 in 10.0 mi East 20.7 mph 27.6 mph N/A   Clear
8:15 AM 91.4 °F 89.4 °F 55.4 °F 29% 29.93 in 10.0 mi East 17.3 mph - N/A   Clear
8:35 AM 91.4 °F 89.4 °F 55.4 °F 29% 29.93 in 10.0 mi East 17.3 mph - N/A   Clear
8:55 AM 91.4 °F 89.4 °F 55.4 °F 29% 29.93 in 10.0 mi East 17.3 mph - N/A   Clear
9:15 AM 93.2 °F 91.9 °F 57.2 °F 30% 29.92 in 10.0 mi East 20.7 mph 25.3 mph N/A   Clear
9:35 AM 93.2 °F 91.9 °F 57.2 °F 30% 29.92 in 10.0 mi East 18.4 mph 27.6 mph N/A   Clear
9:55 AM 95.0 °F 93.0 °F 55.4 °F 26% 29.92 in 10.0 mi East 15.0 mph 21.9 mph N/A   Clear
10:15 AM 95.0 °F 93.0 °F 55.4 °F 26% 29.92 in 10.0 mi East 18.4 mph - N/A   Clear
10:35 AM 96.8 °F 95.1 °F 55.4 °F 25% 29.92 in 10.0 mi East 17.3 mph 23.0 mph N/A   Clear
10:55 AM 96.8 °F 95.1 °F 55.4 °F 25% 29.91 in 10.0 mi East 12.7 mph 23.0 mph N/A   Clear
11:15 AM 98.6 °F 97.2 °F 55.4 °F 24% 29.91 in 10.0 mi ESE 12.7 mph - N/A   Clear
11:35 AM 98.6 °F 97.2 °F 55.4 °F 24% 29.90 in 10.0 mi ESE 13.8 mph 18.4 mph N/A   Clear
11:55 AM 98.6 °F 97.2 °F 55.4 °F 24% 29.90 in 10.0 mi ESE 11.5 mph - N/A   Clear
12:15 PM 98.6 °F 97.2 °F 55.4 °F 24% 29.89 in 10.0 mi ESE 10.4 mph - N/A   Clear
12:35 PM 100.4 °F 98.4 °F 53.6 °F 21% 29.88 in 10.0 mi ESE 10.4 mph 16.1 mph N/A   Clear
12:55 PM 100.4 °F 98.4 °F 53.6 °F 21% 29.87 in 10.0 mi ESE 11.5 mph - N/A   Clear
1:15 PM 100.4 °F 98.8 °F 55.4 °F 22% 29.86 in 10.0 mi East 8.1 mph - N/A   Clear
1:35 PM 100.4 °F 98.4 °F 53.6 °F 21% 29.85 in 10.0 mi East 8.1 mph - N/A   Clear
1:55 PM 102.2 °F 100.4 °F 53.6 °F 20% 29.84 in 10.0 mi SE 8.1 mph - N/A   Clear
2:15 PM 102.2 °F 100.4 °F 53.6 °F 20% 29.83 in 10.0 mi ESE 8.1 mph - N/A   Clear
3:15 PM 102.2 °F 100.4 °F 53.6 °F 20% 29.80 in 10.0 mi ESE 8.1 mph - N/A   Clear
3:35 PM 104.0 °F 102.3 °F 53.6 °F 19% 29.79 in 10.0 mi East 6.9 mph - N/A   Clear
3:55 PM 102.2 °F 100.4 °F 53.6 °F 20% 29.78 in 10.0 mi ESE 6.9 mph - N/A   Clear
4:15 PM 102.2 °F 100.4 °F 53.6 °F 20% 29.78 in 10.0 mi ESE 4.6 mph - N/A   Clear
4:35 PM 102.2 °F 100.4 °F 53.6 °F 20% 29.77 in 10.0 mi SSE 6.9 mph - N/A   Clear
4:55 PM 102.2 °F 100.4 °F 53.6 °F 20% 29.76 in 10.0 mi ESE 5.8 mph - N/A   Clear
5:15 PM 102.2 °F 100.9 °F 55.4 °F 21% 29.76 in 10.0 mi ESE 5.8 mph - N/A   Clear
5:35 PM 102.2 °F 100.9 °F 55.4 °F 21% 29.76 in 10.0 mi East 8.1 mph - N/A   Clear
5:55 PM 100.4 °F 99.7 °F 57.2 °F 24% 29.76 in 10.0 mi ESE 8.1 mph - N/A   Clear
6:15 PM 98.6 °F 98.5 °F 59.0 °F 27% 29.76 in 10.0 mi SE 4.6 mph - N/A   Partly Cloudy
6:35 PM 98.6 °F 97.6 °F 57.2 °F 25% 29.77 in 10.0 mi SE 4.6 mph - N/A   Scattered Clouds
6:55 PM 98.6 °F 98.5 °F 59.0 °F 27% 29.77 in 10.0 mi SSE 4.6 mph - N/A   Mostly Cloudy
7:15 PM 98.6 °F 97.6 °F 57.2 °F 25% 29.77 in 10.0 mi SE 4.6 mph - N/A   Overcast
7:35 PM 98.6 °F 98.5 °F 59.0 °F 27% 29.78 in 7.0 mi SE 4.6 mph - N/A   Mostly Cloudy
7:55 PM 98.6 °F 97.6 °F 57.2 °F 25% 29.79 in 10.0 mi ESE 4.6 mph - N/A   Overcast
8:15 PM 98.6 °F 97.2 °F 55.4 °F 24% 29.79 in 10.0 mi ESE 4.6 mph - N/A   Overcast
8:35 PM 96.8 °F 95.1 °F 55.4 °F 25% 29.79 in 10.0 mi Calm Calm - N/A   Overcast
8:55 PM 95.0 °F 93.0 °F 55.4 °F 26% 29.80 in 10.0 mi Calm Calm - N/A   Overcast
9:15 PM 96.8 °F 94.4 °F 53.6 °F 23% 29.81 in 8.0 mi North 4.6 mph - N/A   Overcast
9:35 PM 96.8 °F 94.4 °F 53.6 °F 23% 29.81 in 10.0 mi North 4.6 mph - N/A   Mostly Cloudy
9:55 PM 96.8 °F 94.4 °F 53.6 °F 23% 29.81 in 10.0 mi Calm Calm - N/A   Overcast
10:15 PM 96.8 °F 95.1 °F 55.4 °F 25% 29.82 in 10.0 mi East 4.6 mph - N/A   Overcast
10:35 PM 95.0 °F 93.0 °F 55.4 °F 26% 29.83 in 10.0 mi ENE 8.1 mph - N/A   Mostly Cloudy
10:55 PM 98.6 °F 97.2 °F 55.4 °F 24% 29.84 in 10.0 mi ENE 3.5 mph 25.3 mph N/A   Mostly Cloudy
11:15 PM 96.8 °F 95.1 °F 55.4 °F 25% 29.83 in 10.0 mi ESE 11.5 mph - N/A   Mostly Cloudy
11:35 PM 93.2 °F 91.9 °F 57.2 °F 30% 29.83 in 10.0 mi SE 10.4 mph - N/A   Overcast
11:55 PM 93.2 °F 91.9 °F 57.2 °F 30% 29.83 in 10.0 mi SE 11.5 mph - N/A   Overcast